Weather History for Wolf Creek Pass, CO

Change the Weather History Date:

Wednesday, April 9, 2014

  Actual Average (KALS) Record (KALS)
Temperature  
Mean Temperature 34 °F 40 °F  
Max Temperature 41 °F 57 °F 72 °F (1977)
Min Temperature 28 °F 22 °F 7 °F (1938)
Degree Days  
Heating Degree Days 30 25  
Month to date heating degree days 235  
Since 1 July heating degree days 7541  
Cooling Degree Days 0 0  
Month to date cooling degree days 0  
Year to date cooling degree days 0  
Moisture  
Dew Point 8 °F    
Average Humidity 33    
Maximum Humidity 51    
Minimum Humidity 20    
Precipitation  
Precipitation 0.00 in 0.02 in 0.33 in (1995)
Month to date precipitation 0.17  
Year to date precipitation 1.22  
Snow  
Snow 0.00 in 0.20 in 1.60 in (1959)
Month to date snowfall 1.4  
Since 1 July snowfall 24.5  
Snow Depth -    
Sea Level Pressure  
Sea Level Pressure 30.41 in    
Wind  
Wind Speed 12 mph (WSW)    
Max Wind Speed 41 mph    
Max Gust Speed 52 mph    
Visibility 10 miles    
Events      
T = Trace of Precipitation, MM = Missing Value Source: NWS Daily Summary

Daily Weather History Graph

Daily Weather History Graph

Search for Another Location

Airport:

Trip Planner

Search our weather history database for the weather conditions in past years. The results will help you decide how hot, cold, wet, or windy it might be!

Date:

Astronomy

Apr. 09, 2014 Rise Set
Actual Time 6:40 AM MDT 7:37 PM MDT
Civil Twilight 6:14 AM MDT 8:03 PM MDT
Nautical Twilight 5:42 AM MDT 8:35 PM MDT
Astronomical Twilight 5:09 AM MDT 9:08 PM MDT
Moon 2:34 PM MDT (4/9) 3:25 AM MDT (4/9)
Length of Visible Light 13h 49m
Length of Day
12h 56m
Waxing Gibbous, 72% of the Moon is Illuminated
Apr 9
Waxing Gibbous
Apr 15
Full
Apr 22
Last Quarter
Apr 29
New
May 6
First Quarter

Hourly Weather History & Observations

Time (MDT) Temp. Windchill Dew Point Humidity Pressure Visibility Wind Dir Wind Speed Gust Speed Precip Events Conditions
12:15 AM 30.2 °F 26.7 °F 10.4 °F 44% 30.49 in 10.0 mi SSW 3.5 mph - N/A   Clear
12:37 AM 30.2 °F 25.4 °F 10.4 °F 44% 30.48 in 10.0 mi WSW 4.6 mph - N/A   Clear
12:56 AM 30.2 °F 25.4 °F 12.2 °F 47% 30.48 in 10.0 mi SW 4.6 mph - N/A   Clear
1:17 AM 30.2 °F 25.4 °F 10.4 °F 44% 30.47 in 10.0 mi WSW 4.6 mph - N/A   Clear
1:36 AM 30.2 °F 23.4 °F 12.2 °F 47% 30.47 in 10.0 mi WSW 6.9 mph - N/A   Clear
1:44 AM 28.4 °F 21.2 °F 12.2 °F 51% 30.47 in 10.0 mi SW 6.9 mph - N/A   Clear
2:17 AM 28.4 °F 21.2 °F 12.2 °F 51% 30.46 in 10.0 mi SSW 6.9 mph - N/A   Clear
2:20 AM 28.4 °F 20.4 °F 12.2 °F 51% 30.46 in 10.0 mi SSW 8.1 mph - N/A   Clear
2:51 AM 30.2 °F 21.3 °F 8.6 °F 40% 30.45 in 10.0 mi West 10.4 mph - N/A   Clear
3:17 AM 30.2 °F 22.6 °F 5.0 °F 34% 30.44 in 10.0 mi WSW 8.1 mph - N/A   Clear
3:35 AM 30.2 °F 21.9 °F 3.2 °F 32% 30.44 in 10.0 mi West 9.2 mph - N/A   Clear
3:57 AM 30.2 °F 21.3 °F 3.2 °F 32% 30.44 in 10.0 mi WSW 10.4 mph - N/A   Clear
4:17 AM 30.2 °F 20.8 °F 3.2 °F 32% 30.43 in 10.0 mi West 11.5 mph - N/A   Clear
4:37 AM 30.2 °F 21.9 °F 3.2 °F 32% 30.43 in 10.0 mi WSW 9.2 mph - N/A   Clear
4:57 AM 28.4 °F 19.1 °F 5.0 °F 37% 30.43 in 10.0 mi WSW 10.4 mph - N/A   Clear
5:17 AM 30.2 °F 20.8 °F 3.2 °F 32% 30.43 in 10.0 mi WSW 11.5 mph - N/A   Clear
5:37 AM 30.2 °F 21.3 °F 1.4 °F 29% 30.42 in 10.0 mi West 10.4 mph - N/A   Clear
5:56 AM 28.4 °F 18.0 °F 1.4 °F 31% 30.43 in 10.0 mi West 12.7 mph - N/A   Clear
6:14 AM 30.2 °F 20.8 °F -0.4 °F 27% 30.43 in 10.0 mi WSW 11.5 mph 17.3 mph N/A   Clear
6:36 AM 30.2 °F 21.9 °F -0.4 °F 27% 30.44 in 10.0 mi West 9.2 mph 16.1 mph N/A   Clear
6:56 AM 30.2 °F 24.3 °F -0.4 °F 27% 30.44 in 10.0 mi WSW 5.8 mph - N/A   Clear
7:12 AM 32.0 °F 24.2 °F -4.0 °F 21% 30.44 in 10.0 mi NW 9.2 mph - N/A   Clear
7:36 AM 32.0 °F 25.6 °F -4.0 °F 21% 30.45 in 10.0 mi WNW 6.9 mph - N/A   Clear
7:57 AM 33.8 °F 29.6 °F -4.0 °F 20% 30.46 in 10.0 mi West 4.6 mph - N/A   Clear
8:15 AM 33.8 °F 26.4 °F -4.0 °F 20% 30.47 in 10.0 mi West 9.2 mph - N/A   Clear
8:36 AM 35.6 °F - -2.2 °F 20% 30.47 in 10.0 mi Calm Calm - N/A   Clear
8:55 AM 35.6 °F 32.8 °F 1.4 °F 24% 30.48 in 10.0 mi NNW 3.5 mph - N/A   Clear
9:17 AM 35.6 °F 31.7 °F 1.4 °F 24% 30.47 in 10.0 mi West 4.6 mph - N/A   Clear
9:53 AM 37.4 °F 32.1 °F 6.8 °F 28% 30.47 in 10.0 mi West 6.9 mph - N/A   Clear
10:15 AM 37.4 °F 33.8 °F 8.6 °F 30% 30.47 in 10.0 mi WSW 4.6 mph - N/A   Clear
10:37 AM 39.2 °F 34.2 °F 8.6 °F 28% 30.47 in 10.0 mi WNW 6.9 mph - N/A   Clear
10:43 AM 39.2 °F 34.2 °F 8.6 °F 28% 30.47 in 10.0 mi SW 6.9 mph - N/A   Clear
11:15 AM 39.2 °F 32.5 °F 8.6 °F 28% 30.47 in 10.0 mi SSW 10.4 mph 21.9 mph N/A   Clear
11:30 AM 37.4 °F 30.3 °F 10.4 °F 33% 30.47 in 10.0 mi SSW 10.4 mph 16.1 mph N/A   Clear
11:54 AM 39.2 °F 31.6 °F 12.2 °F 33% 30.46 in 10.0 mi SW 12.7 mph 18.4 mph N/A   Clear
12:17 PM 37.4 °F 28.2 °F 10.4 °F 33% 30.45 in 10.0 mi SSW 16.1 mph 25.3 mph N/A   Clear
12:32 PM 39.2 °F 31.6 °F 12.2 °F 33% 30.45 in 10.0 mi SW 12.7 mph 32.2 mph N/A   Clear
12:53 PM 41.0 °F 31.9 °F 12.2 °F 31% 30.45 in 10.0 mi SSW 19.6 mph 27.6 mph N/A   Clear
1:11 PM 39.2 °F 31.2 °F 14.0 °F 36% 30.45 in 10.0 mi SSW 13.8 mph 31.1 mph N/A   Clear
1:37 PM 41.0 °F 31.1 °F 17.6 °F 39% 30.43 in 10.0 mi SW 23.0 mph 27.6 mph N/A   Clear
1:57 PM 41.0 °F 32.2 °F 17.6 °F 39% 30.42 in 10.0 mi WSW 18.4 mph 32.2 mph N/A   Clear
2:07 PM 41.0 °F 32.5 °F 15.8 °F 36% 30.42 in 10.0 mi SSW 17.3 mph 31.1 mph N/A   Clear
2:36 PM 41.0 °F 31.9 °F 15.8 °F 36% 30.40 in 10.0 mi SSW 19.6 mph 32.2 mph N/A   Clear
2:55 PM 41.0 °F 31.6 °F 15.8 °F 36% 30.39 in 10.0 mi SW 20.7 mph 32.2 mph N/A   Clear
3:12 PM 41.0 °F 31.1 °F 15.8 °F 36% 30.38 in 10.0 mi WSW 23.0 mph 34.5 mph N/A   Clear
3:37 PM 41.0 °F 29.8 °F 14.0 °F 33% 30.37 in 10.0 mi WSW 29.9 mph 41.4 mph N/A   Scattered Clouds
3:57 PM 41.0 °F 30.9 °F 14.0 °F 33% 30.37 in 10.0 mi SW 24.2 mph 39.1 mph N/A   Scattered Clouds
4:11 PM 41.0 °F 30.7 °F 14.0 °F 33% 30.37 in 10.0 mi WSW 25.3 mph 41.4 mph N/A   Scattered Clouds
4:35 PM 41.0 °F 31.4 °F 14.0 °F 33% 30.35 in 10.0 mi SW 21.9 mph 33.4 mph N/A   Clear
4:57 PM 41.0 °F 31.1 °F 14.0 °F 33% 30.35 in 10.0 mi SSW 23.0 mph 36.8 mph N/A   Clear
5:14 PM 39.2 °F 27.6 °F 12.2 °F 33% 30.35 in 10.0 mi SW 28.8 mph 46.0 mph N/A   Clear
5:37 PM 41.0 °F 30.7 °F 12.2 °F 31% 30.34 in 10.0 mi SW 25.3 mph 39.1 mph N/A   Clear
5:55 PM 39.2 °F 27.0 °F 12.2 °F 33% 30.34 in 10.0 mi SW 32.2 mph 43.7 mph N/A   Clear
6:17 PM 37.4 °F 24.8 °F 12.2 °F 36% 30.33 in 10.0 mi SW 31.1 mph 43.7 mph N/A   Clear
6:37 PM 37.4 °F 24.4 °F 12.2 °F 36% 30.33 in 10.0 mi SW 33.4 mph 43.7 mph N/A   Scattered Clouds
6:54 PM 35.6 °F 23.2 °F 10.4 °F 35% 30.33 in 10.0 mi SW 26.5 mph 46.0 mph N/A   Scattered Clouds
7:15 PM 35.6 °F 23.0 °F 8.6 °F 33% 30.33 in 10.0 mi SW 27.6 mph 41.4 mph N/A   Clear
7:34 PM 35.6 °F 20.8 °F 5.0 °F 28% 30.32 in 10.0 mi WSW 40.3 mph 51.8 mph N/A   Clear
7:57 PM 33.8 °F 18.1 °F 5.0 °F 30% 30.32 in 10.0 mi SW 41.4 mph 47.2 mph N/A   Clear
8:17 PM 33.8 °F 19.4 °F 5.0 °F 30% 30.32 in 10.0 mi WSW 33.4 mph 44.9 mph N/A   Clear
8:32 PM 33.8 °F 19.9 °F 5.0 °F 30% 30.33 in 10.0 mi WSW 31.1 mph 47.2 mph N/A   Clear
8:57 PM 33.8 °F 21.0 °F 3.2 °F 28% 30.35 in 10.0 mi SW 25.3 mph 46.0 mph N/A   Clear
9:17 PM 33.8 °F 21.0 °F 5.0 °F 30% 30.35 in 10.0 mi SW 25.3 mph 39.1 mph N/A   Clear
9:37 PM 33.8 °F 20.5 °F 6.8 °F 32% 30.36 in 10.0 mi WSW 27.6 mph 38.0 mph N/A   Clear
9:52 PM 33.8 °F 21.9 °F 6.8 °F 32% 30.36 in 10.0 mi WSW 21.9 mph 29.9 mph N/A   Clear
10:11 PM 33.8 °F 21.3 °F 6.8 °F 32% 30.36 in 10.0 mi WSW 24.2 mph 31.1 mph N/A   Clear
10:35 PM 33.8 °F 21.0 °F 6.8 °F 32% 30.35 in 10.0 mi WSW 25.3 mph 36.8 mph N/A   Clear
10:55 PM 33.8 °F 20.3 °F 5.0 °F 30% 30.34 in 10.0 mi SW 28.8 mph 35.7 mph N/A   Clear
11:17 PM 33.8 °F 20.5 °F 5.0 °F 30% 30.34 in 10.0 mi SW 27.6 mph 36.8 mph N/A   Clear
11:37 PM 33.8 °F 21.0 °F 5.0 °F 30% 30.34 in 10.0 mi WSW 25.3 mph 34.5 mph N/A   Clear
11:50 PM 33.8 °F 20.5 °F 5.0 °F 30% 30.34 in 10.0 mi SW 27.6 mph 34.5 mph N/A   Clear